Flag for U.S.A. Weather past 2 weeks in Fayetteville, North Carolina, U.S.A.

Now
67 °F

Clear.


Feels Like: 67 °F
Forecast: 67 / 86 °F
Wind: 6 mph from Northeast

Location: Fayetteville Regional Airport

Current Time: Aug 28, 2015 at 2:04:50 AM

Latest Report: Aug 28, 2015 at 12:53 AM


Visibility: 10 mi

Pressure: 30.09 "Hg

Humidity: 90%

Dew point: 64 °F

Location of FayettevilleLocation

Historic Weather in Fayetteville — Graph

°F

Fayetteville temperature yesterday

Maximum temperature yesterday: 82 °F (at 12:53 PM)
Minimum temperature yesterday: 68 °F (at 11:53 PM)
Average temperature yesterday: 75 °F

Past Weeks' High & Low Weather Summary

 TemperatureHumidityPressure
High91 °F (Aug 17, 12:53 PM)97% (Aug 14, 5:53 AM)30.17 "Hg (Aug 14, 5:53 AM)
Low65 °F (Aug 13, 5:53 AM)36% (Aug 13, 2:53 PM)29.82 "Hg (Aug 25, 4:53 PM)
Average79 °F73%30.00 "Hg
* Reported Aug 13 12:53 AM — Aug 28 12:53 AM, Fayetteville, Weather by CustomWeather, © 2015

Note: Actual official high and low records may vary slightly from our data, if they occured in-between our weather recording intervals... More about our weather records

Advertising

Fayetteville weather history for previous 24 hours

 ConditionsComfort  
Time TempWeatherWind HumidityBarometerVisibility
12:53 AM
Fri, Aug 28
67 °FClear.6 mph90%30.09 "Hg10 mi
11:53 PM
Thu, Aug 27
68 °FClear.5 mph87%30.09 "Hg10 mi
10:53 PM70 °FClear.5 mph84%30.08 "Hg10 mi
9:53 PM70 °FClear.3 mph81%30.06 "Hg10 mi
8:53 PM72 °FClear.5 mph76%30.05 "Hg10 mi
7:53 PM74 °FPassing clouds.5 mph69%30.04 "Hg10 mi
6:53 PM76 °FOvercast.7 mph67%30.03 "Hg10 mi
5:53 PM77 °FOvercast.6 mph64%30.02 "Hg10 mi
4:53 PM78 °FOvercast.7 mph62%30.02 "Hg10 mi
3:53 PM80 °FCloudy.9 mph56%30.01 "Hg10 mi
2:53 PM82 °FPartly sunny.15 mph55%30.02 "Hg10 mi
1:53 PM81 °FOvercast.12 mph58%30.02 "Hg10 mi
12:53 PM82 °FSunny.13 mph55%30.03 "Hg10 mi
11:53 AM81 °FPassing clouds.12 mph56%30.04 "Hg10 mi
10:53 AM78 °FPartly sunny.10 mph62%30.05 "Hg10 mi
9:53 AM75 °FMostly cloudy.12 mph69%30.02 "Hg10 mi
8:53 AM73 °FMostly cloudy.12 mph76%30.02 "Hg10 mi
7:53 AM72 °FMostly cloudy.10 mph84%30.00 "Hg10 mi
6:53 AM72 °FMostly cloudy.7 mph87%29.99 "Hg10 mi
5:53 AM72 °FMostly cloudy.8 mph84%29.97 "Hg10 mi
4:53 AM71 °FPassing clouds.7 mph90%29.96 "Hg10 mi
3:53 AM71 °FOvercast.6 mph90%29.96 "Hg10 mi
2:53 AM72 °FPassing clouds.8 mph87%29.96 "Hg10 mi
Weather by CustomWeather, © 2015

See weather overviewHow to use our weather pages